[[{"header":{"parameterUnit":"m.s-1","parameterCategory":1,"la1":30.2991,"la2":30.254,"lo1":-89.0895,"lo2":-89.0444,"dy":0.0017,"dx":0.0017,"nx":28,"ny":28,"refTime":"2025-01-30T03:00:00:Z","depth":0,"parameterNumber":2,"parameterNumberName":"U-component_of_WINDS"},"data":[0,0,0,0,0,0,0,0,0,0,0,0,0,0,0,0,0,0,0,0,0,0,0,0,0,0,0,0,0,0,0,0,0,0,0,0,0,0,0,0,0,0,0,0,0,0,0,0,0,0,0,0,0,0,0,0,0,0,-3.7606,-3.7607,0,-3.7706,-3.7707,-3.7708,-3.7715,-3.7714,-3.7712,-3.7711,-3.7812,-3.7815,-3.7819,0,0,0,0,0,0,0,0,0,0,0,0,0,-3.7421,-3.7424,-3.7606,-3.7607,-3.7609,-3.7706,-3.7707,-3.7708,-3.7715,-3.7713,-3.7712,-3.7711,-3.7811,-3.7815,-3.7819,0,0,0,0,0,0,0,0,0,0,0,0,0,-3.7509,-3.7425,-3.7606,-3.7624,-3.7626,-3.7705,-3.7707,-3.7709,-3.7715,-3.7713,-3.7712,-3.771,-3.7809,-3.7815,-3.782,-3.7888,0,0,-3.7837,-3.784,0,0,0,0,0,0,0,0,-3.7504,-3.7516,-3.762,-3.7622,-3.7626,-3.7696,-3.7678,-3.7769,-3.7716,-3.7681,-3.7711,-3.7709,-3.7775,-3.7783,-3.7805,-3.7893,-3.7897,-3.7838,-3.7841,-3.7843,-3.7845,0,0,0,0,0,0,0,-3.7498,-3.7511,-3.7645,-3.7621,-3.7625,-3.7626,-3.7637,-3.7696,-3.7736,-3.7684,-3.7685,-3.7697,-3.7776,-3.78,-3.7808,-3.7898,-3.7837,-3.7842,-3.7846,-3.7848,-3.8047,-3.8049,0,0,0,0,0,0,-3.7488,-3.7506,-3.7642,-3.7648,-3.7559,-3.7631,-3.7643,-3.7675,-3.7735,-3.7743,-3.7698,-3.7697,-3.7791,-3.7801,-3.7811,-3.7894,-3.7843,-3.7849,-3.7852,-3.8045,-3.8047,-3.8049,0,0,0,0,0,0,-3.7484,-3.75,-3.7638,-3.7578,-3.7595,-3.7636,-3.7672,-3.7678,-3.7702,-3.7746,-3.7753,-3.7715,-3.779,-3.7803,-3.7869,-3.7898,-3.7851,-3.7856,-3.8043,-3.8046,-3.8048,-3.8061,0,0,0,0,0,0,-3.7479,-3.7499,-3.7525,-3.7578,-3.7599,-3.7695,-3.7674,-3.7681,-3.7712,-3.7711,-3.7764,-3.7771,-3.779,-3.7861,-3.7874,-3.7904,-3.786,-3.804,-3.8044,-3.8047,-3.8058,-3.8064,-3.8069,0,0,0,0,0,-3.7472,-3.7524,-3.7526,-3.7543,-3.7632,-3.7696,-3.7708,-3.7729,-3.7714,-3.7741,-3.7769,-3.7769,-3.7893,-3.7867,-3.7883,-3.7915,-3.8038,-3.8043,-3.8047,-3.8055,-3.8063,-3.8069,0,0,0,0,0,0,-3.7473,-3.7532,-3.7534,-3.7605,-3.7646,-3.7697,-3.7731,-3.7736,-3.7781,-3.7778,-3.7802,-3.7814,-3.7879,-3.7904,-3.7874,-3.7984,-3.7964,-3.7972,-3.7965,-3.7972,-3.7977,-3.7969,-3.7865,0,0,0,0,0,-3.7481,-3.7529,-3.7578,-3.7635,-3.7656,-3.769,-3.7719,-3.7732,-3.7774,-3.7791,-3.7824,-3.7865,-3.7914,-3.7945,-3.7991,-3.8062,-3.8074,-3.8092,-3.8098,-3.8102,-3.8108,-3.8147,-3.8155,-3.8064,-3.8064,-3.8064,0,0,-3.7499,-3.7537,-3.7565,-3.7636,-3.7669,-3.7717,-3.7704,-3.7756,-3.7791,-3.7799,-3.7863,-3.7889,-3.7936,-3.8005,-3.8037,-3.8028,-3.8136,-3.8108,-3.8111,-3.8114,-3.8152,-3.8161,-3.8168,-3.8067,-3.8066,-3.8066,0,0,-3.7555,-3.759,-3.7641,-3.7675,-3.7725,-3.7748,-3.776,-3.7812,-3.7829,-3.7894,-3.7901,-3.7944,-3.8026,-3.806,-3.8087,-3.8158,-3.816,-3.8173,-3.82,-3.8238,-3.8245,-3.8252,-3.8276,-3.8284,-3.8179,-3.8179,-3.8179,0,-3.7571,-3.7644,-3.7667,-3.7719,-3.7749,-3.776,-3.7812,-3.7843,-3.7906,-3.7927,-3.7917,-3.802,-3.8053,-3.8129,-3.8147,-3.817,-3.8184,-3.8166,-3.8242,-3.8249,-3.8256,-3.8279,-3.8288,-3.818,-3.818,-3.818,-3.818,0,-3.766,-3.771,-3.7746,-3.7807,-3.7842,-3.7894,-3.7925,-3.7958,-3.7968,-3.7992,-3.8058,-3.8098,-3.8153,-3.8172,-3.8183,-3.825,-3.8243,-3.8238,-3.8217,-3.8265,-3.8287,-3.8296,-3.8182,-3.8181,-3.8181,-3.8181,0,0,-3.7717,-3.7791,-3.7804,-3.7832,-3.7889,-3.7928,-3.7981,-3.8035,-3.8062,-3.8106,-3.815,-3.822,-3.8215,-3.8247,-3.8262,-3.8295,-3.8348,-3.8285,-3.8287,-3.8294,-3.8423,-3.8426,-3.8436,-3.835,-3.8352,-3.8353,-3.8419,0,-3.7779,-3.7872,-3.7895,-3.7975,-3.8021,-3.8033,-3.8078,-3.8118,-3.8142,-3.8185,-3.8212,-3.8261,-3.8252,-3.8271,-3.8305,-3.8334,-3.8373,-3.833,-3.839,-3.8392,-3.8376,-3.8448,-3.8451,-3.851,-3.8428,-3.8429,-3.8431,0,-3.7863,-3.7908,-3.7993,-3.8044,-3.8064,-3.8105,-3.8156,-3.8198,-3.8244,-3.8259,-3.8295,-3.8307,-3.8361,-3.834,-3.8416,-3.8385,-3.8412,-3.843,-3.8433,-3.8438,-3.8412,-3.8453,-3.853,-3.8538,-3.8445,-3.8444,-3.8443,0,-3.7894,-3.7977,-3.8038,-3.8062,-3.8123,-3.8152,-3.8178,-3.8223,-3.8254,-3.8299,-3.832,-3.8371,-3.8399,-3.8438,-3.8463,-3.8446,-3.8537,-3.8518,-3.855,-3.8549,-3.8567,-3.8565,-3.8647,-3.8587,-3.8587,-3.8587,-3.8586,0,-3.7959,-3.801,-3.8053,-3.8091,-3.8148,-3.8174,-3.823,-3.8258,-3.8297,-3.8339,-3.8353,-3.8393,-3.8425,-3.8469,-3.8489,-3.8548,-3.8561,-3.8574,-3.8578,-3.8572,-3.857,-3.8588,-3.8583,-3.8589,-3.8588,-3.8588,-3.8588,0,-3.8003,-3.8035,-3.8102,-3.8155,-3.817,-3.8209,-3.8255,-3.8291,-3.8317,-3.8371,-3.8385,-3.8424,-3.8477,-3.8507,-3.8573,-3.8587,-3.8652,-3.8655,-3.8636,-3.8638,-3.8668,-3.8664,-3.8763,-3.8777,-3.8709,-3.871,-3.871,0,-3.8042,-3.8081,-3.8139,-3.8169,-3.8196,-3.8244,-3.8277,-3.8305,-3.8338,-3.8393,-3.8423,-3.8477,-3.8521,-3.8605,-3.8639,-3.869,-3.8693,-3.8725,-3.8701,-3.8693,-3.8692,-3.8688,-3.8692,-3.8728,-3.8729,-3.8729,-3.873,0,-3.8107,-3.8121,-3.8167,-3.8218,-3.8257,-3.8299,-3.834,-3.8364,-3.8399,-3.8436,-3.849,-3.8524,-3.8592,-3.8645,-3.8699,-3.8727,-3.8734,-3.8737,-3.8747,-3.874,-3.8726,-3.8733,-3.8646,-3.8734,-3.8734,-3.8733,-3.8733,-3.8733,-3.8148,-3.8184,-3.823,-3.8281,-3.8316,-3.8354,-3.8391,-3.8422,-3.8468,-3.8525,-3.854,-3.8596,-3.8642,-3.8715,-3.8744,-3.8789,-3.8783,-3.8798,-3.8801,-3.8804,-3.8804,-3.8721,-3.8799,-3.8799,-3.8799,-3.8799,-3.8799,0,-3.8212,-3.8243,-3.829,-3.8348,-3.8388,-3.8393,-3.844,-3.8473,-3.8523,-3.8565,-3.8608,-3.867,-3.8722,-3.8761,-3.8814,-3.8843,-3.8847,-3.8855,-3.8852,-3.8859,-3.8807,-3.8792,-3.8851,-3.8851,-3.8851,-3.8851,-3.8851,-3.8851,-3.825,-3.831,-3.833,-3.8407,-3.8437,-3.8493,-3.8519,-3.8555,-3.8589,-3.8658,-3.8701,-3.8727,-3.8768,-3.8824,-3.8871,-3.8882,-3.89,-3.8907,-3.8918,-3.8868,-3.8862,-3.8857,-3.8843,-3.8911,-3.8911,-3.8965,-3.8966,-3.8966]},{"header":{"parameterUnit":"m.s-1","parameterCategory":1,"la1":30.2991,"la2":30.254,"lo1":-89.0895,"lo2":-89.0444,"dy":0.0017,"dx":0.0017,"nx":28,"ny":28,"refTime":"2025-01-30T03:00:00:Z","depth":0,"parameterNumber":3,"parameterNumberName":"V-component_of_WINDS"},"data":[0,0,0,0,0,0,0,0,0,0,0,0,0,0,0,0,0,0,0,0,0,0,0,0,0,0,0,0,0,0,0,0,0,0,0,0,0,0,0,0,0,0,0,0,0,0,0,0,0,0,0,0,0,0,0,0,0,0,4.0934,4.0935,0,4.1,4.1001,4.1002,4.1009,4.1008,4.1007,4.1007,4.1071,4.1074,4.1076,0,0,0,0,0,0,0,0,0,0,0,0,0,4.0813,4.0815,4.0934,4.0935,4.0936,4.1,4.1001,4.1002,4.1009,4.1008,4.1007,4.1006,4.1071,4.1073,4.1076,0,0,0,0,0,0,0,0,0,0,0,0,0,4.0871,4.0816,4.0934,4.0947,4.0949,4.1,4.1001,4.1002,4.1009,4.1008,4.1007,4.1006,4.107,4.1073,4.1077,4.1118,0,0,4.1087,4.1089,0,0,0,0,0,0,0,0,4.0868,4.0875,4.0944,4.0946,4.0948,4.0995,4.0982,4.1041,4.1009,4.0986,4.1007,4.1006,4.1047,4.1052,4.1066,4.1121,4.1124,4.1088,4.109,4.1091,4.1092,0,0,0,0,0,0,0,4.0863,4.0872,4.096,4.0945,4.0948,4.0949,4.0956,4.0993,4.1021,4.0988,4.0989,4.0997,4.1048,4.1063,4.1068,4.1125,4.1087,4.1091,4.1093,4.1094,4.1221,4.1222,0,0,0,0,0,0,4.0857,4.0869,4.0958,4.0962,4.0905,4.0952,4.096,4.0981,4.1021,4.1026,4.0997,4.0997,4.1058,4.1064,4.107,4.1125,4.1091,4.1094,4.1096,4.1219,4.1221,4.1222,0,0,0,0,0,0,4.0855,4.0865,4.0955,4.0916,4.0928,4.0956,4.0979,4.0983,4.0999,4.1028,4.1033,4.1008,4.1057,4.1065,4.1107,4.1127,4.1096,4.1099,4.1218,4.122,4.1222,4.1232,0,0,0,0,0,0,4.0851,4.0864,4.088,4.0916,4.093,4.0992,4.098,4.0985,4.1005,4.1005,4.1039,4.1044,4.1057,4.1102,4.1111,4.1131,4.1102,4.1216,4.1219,4.1221,4.123,4.1234,4.1237,0,0,0,0,0,4.0847,4.0879,4.0881,4.0892,4.0951,4.0993,4.1,4.1015,4.1006,4.1023,4.1043,4.1043,4.1123,4.1106,4.1116,4.1138,4.1215,4.1218,4.1221,4.1228,4.1233,4.1237,0,0,0,0,0,0,4.0843,4.0884,4.0887,4.0932,4.0959,4.0994,4.1015,4.1019,4.1049,4.1047,4.1064,4.1071,4.1113,4.1129,4.111,4.1182,4.1168,4.1173,4.117,4.1175,4.1179,4.1175,4.1105,0,0,0,0,0,4.0848,4.0879,4.0913,4.0949,4.0963,4.0987,4.1006,4.1015,4.1044,4.1055,4.1077,4.1104,4.1136,4.1156,4.1186,4.1232,4.1241,4.1252,4.1255,4.1258,4.1263,4.1291,4.1298,4.1232,4.1232,4.1232,0,0,4.0857,4.0883,4.0902,4.0949,4.0971,4.1004,4.0996,4.103,4.1055,4.1059,4.1102,4.1119,4.115,4.1195,4.1216,4.121,4.1283,4.1262,4.1264,4.1267,4.1295,4.1301,4.1307,4.1234,4.1233,4.1233,0,0,4.0891,4.0913,4.0948,4.0971,4.1006,4.1022,4.103,4.1066,4.1078,4.1121,4.1126,4.1155,4.1208,4.1231,4.125,4.1296,4.1299,4.1305,4.1325,4.1353,4.1358,4.1363,4.1382,4.1389,4.1309,4.1309,4.131,0,4.0898,4.0949,4.0965,4.1,4.1022,4.1029,4.1065,4.1086,4.1129,4.1143,4.1136,4.1206,4.1227,4.1279,4.1291,4.1304,4.1316,4.1302,4.1356,4.1361,4.1366,4.1385,4.1392,4.131,4.131,4.131,4.131,0,4.0957,4.0992,4.1015,4.1059,4.1083,4.1118,4.114,4.1162,4.117,4.1187,4.1232,4.1258,4.1296,4.1308,4.1314,4.1362,4.1358,4.1353,4.134,4.1373,4.1391,4.1398,4.1312,4.1311,4.1311,4.1311,0,0,4.099,4.1045,4.1053,4.1075,4.1115,4.1142,4.1178,4.1216,4.1236,4.1265,4.1297,4.1343,4.134,4.1362,4.1371,4.1395,4.1434,4.1388,4.1389,4.1398,4.1491,4.1497,4.1505,4.1435,4.1437,4.1438,4.149,0,4.1032,4.1098,4.1115,4.1171,4.1205,4.1214,4.1246,4.1274,4.1291,4.1322,4.134,4.1375,4.1366,4.138,4.1404,4.1424,4.1453,4.142,4.1466,4.1468,4.1461,4.1514,4.1519,4.1567,4.1497,4.1498,4.1499,0,4.1088,4.1122,4.1183,4.1222,4.1236,4.1265,4.1303,4.1332,4.1365,4.1376,4.1401,4.1409,4.1448,4.1432,4.1486,4.1463,4.1483,4.1496,4.1498,4.1505,4.1487,4.1525,4.1582,4.1591,4.1509,4.1508,4.1508,0,4.1111,4.117,4.1215,4.1233,4.1278,4.1299,4.1319,4.135,4.1374,4.1406,4.1422,4.1458,4.1478,4.1506,4.1524,4.151,4.1578,4.1563,4.159,4.159,4.1606,4.1605,4.167,4.1614,4.1613,4.1613,4.1613,0,4.1156,4.1194,4.1227,4.1255,4.1297,4.1317,4.1358,4.1378,4.1407,4.1439,4.1447,4.1477,4.1498,4.1531,4.1545,4.159,4.1598,4.1609,4.1613,4.161,4.1609,4.1625,4.1623,4.1615,4.1615,4.1614,4.1614,0,4.1189,4.1212,4.1262,4.1303,4.1314,4.1344,4.1378,4.1406,4.1424,4.1465,4.1476,4.1504,4.1544,4.1564,4.1612,4.1622,4.1674,4.1674,4.1664,4.1666,4.1693,4.1692,4.1773,4.1786,4.1718,4.1719,4.1719,0,4.1218,4.1247,4.1292,4.1315,4.1336,4.1373,4.1398,4.1418,4.1443,4.1484,4.1508,4.1548,4.1582,4.1645,4.1669,4.1707,4.171,4.1736,4.1716,4.1714,4.1715,4.1714,4.1718,4.174,4.1741,4.1742,4.1742,0,4.1267,4.1278,4.1314,4.1355,4.1385,4.1418,4.145,4.1468,4.1494,4.1522,4.1564,4.159,4.1642,4.1683,4.1723,4.1743,4.1748,4.1748,4.1757,4.1756,4.175,4.1757,4.1677,4.1747,4.1746,4.1746,4.1746,4.1745,4.1301,4.1329,4.1366,4.1407,4.1434,4.1465,4.1494,4.1517,4.1553,4.1598,4.1607,4.1653,4.1687,4.1742,4.1764,4.1799,4.1794,4.1806,4.1809,4.1813,4.1816,4.1743,4.1806,4.1806,4.1806,4.1806,4.1806,0,4.1354,4.1379,4.1416,4.1463,4.1496,4.1498,4.1535,4.1562,4.1602,4.1634,4.1668,4.1718,4.1759,4.1787,4.1829,4.1852,4.1856,4.1863,4.1862,4.1868,4.1817,4.1807,4.1859,4.1859,4.1859,4.1859,4.1859,4.1859,4.1386,4.1435,4.1451,4.1514,4.1539,4.1585,4.1606,4.1635,4.1661,4.1717,4.1752,4.1771,4.1803,4.1847,4.1885,4.1892,4.1908,4.1916,4.1924,4.1876,4.1871,4.1865,4.1856,4.1918,4.1919,4.1972,4.1973,4.1973]}]]